User: anonymous   Login
Location: Hungerford
(51.4167°N, 1.5167°W)
Time: 14:47:48
(UTC+00:00)
Language:

Meteor 1-22 Rocket - Orbit

View from above orbital plane
View from above orbital plane
View from above satellite
View from above satellite

Ground track
Ground track

The orbit data is extracted from the following two-line orbital elements,

1  8294U 75087B   20333.45758505 -.00000020 +00000-0 -18512-4 0  9995
2  8294 081.2170 234.2011 0106419 087.6850 273.6499 14.08652158322021
Epoch (UTC): 28 November 2020 10:58:55
Eccentricity: 0.0106419
inclination: 81.2170°
perigee height: 787 km
apogee height: 941 km
right ascension of ascending node: 234.2011°
argument of perigee: 87.6850°
revolutions per day: 14.08652158
mean anomaly at epoch: 273.6499°
orbit number at epoch: 32202

The dashed part of the orbit path shows where the satellite is in the earth's shadow,  

DLR